Location: Bogis-Bossey
(46.3500°N, 6.1667°E)
Time: 17:30:03
(UTC+00:00)

Gblst 52 Del rocket - Pass Details

Date: 17 August 2022
Orbit: 805 x 1365 km, 51.5° (Epoch: 01 October)

Event Time Altitude Azimuth Distance (km) Brightness Sun altitude
Rises 20:52:24 0° 231° (SW) 3,494 7.5 -19.6°
Reaches altitude 10° 20:54:47 10° 230° (SW) 2,618 6.8 -19.9°
Maximum altitude 21:00:58 73° 147° (SSE) 1,064 4.5 -20.6°
Drops below altitude 10° 21:08:10 10° 64° (ENE) 3,027 6.9 -21.5°
Sets 21:11:07 0° 63° (ENE) 4,075 7.6 -21.8°
